Grand Junction, CO

2:51 PM MDT on August 20, 2017 (GMT -0600)
Walker

Weather History for KGJT - April, 2013

Change the Weather History Date:

Thursday, April 18, 2013

  Actual Average Record
Temperature  
Mean Temperature 33 °F 52 °F  
Max Temperature 42 °F 66 °F 84 °F (1946)
Min Temperature 24 °F 39 °F 22 °F (1922)
Degree Days  
Heating Degree Days 32 13  
Month to date heating degree days 332 273  
Since 1 July heating degree days 5744 5305  
Cooling Degree Days 0 0  
Month to date cooling degree days 0 0  
Year to date cooling degree days 0 0  
Moisture  
Dew Point 18 °F    
Average Humidity 58    
Maximum Humidity 81    
Minimum Humidity 34    
Precipitation  
Precipitation 0.00 in 0.03 in 0.37 in (1975)
Month to date precipitation 1.15 0.57  
Year to date precipitation 2.50 2.61  
Snow  
Snow 0.00 in 0.00 in 3.60 in (1975)
Month to date snowfall 4.6 0.8  
Since 1 July snowfall 24.6 18.9  
Snow Depth T in    
Sea Level Pressure  
Sea Level Pressure 30.27 in    
Wind  
Wind Speed 5 mph (NE)    
Max Wind Speed 15 mph    
Max Gust Speed 20 mph    
Visibility 10 miles    
Events      
T = Trace of Precipitation, MM = Missing Value Source: NWS Daily Summary

Daily Weather History Graph

Daily Weather History Graph

Search for Another Location

Airport or City:

Trip Planner

Search our weather history database for the weather conditions in past years. The results will help you decide how hot, cold, wet, or windy it might be!

Date:

Astronomy

Apr. 18, 2013 Rise Set
Actual Time 6:32 AM MDT 7:54 PM MDT
Civil Twilight 6:04 AM MDT 8:22 PM MDT
Nautical Twilight 5:31 AM MDT 8:56 PM MDT
Astronomical Twilight 4:56 AM MDT 9:31 PM MDT
Moon 12:47 PM MDT (4/18) 2:10 AM MDT (4/18)
Length of Visible Light 14h 17m
Length of Day
13h 22m
First Quarter, 52% of the Moon is Illuminated
Apr 18
First Quarter
Apr 25
Full
May 2
Last Quarter
May 9
New
May 17
First Quarter

Hourly Weather History & Observations

Time (MDT) Temp. Windchill Dew Point Humidity Pressure Visibility Wind Dir Wind Speed Gust Speed Precip Events Conditions
12:53 AM 27.0 °F 16.7 °F 18.0 °F 69% 30.19 in 10.0 mi NE 11.5 mph - N/A   Mostly Cloudy
1:53 AM 27.0 °F 19.5 °F 17.1 °F 66% 30.19 in 10.0 mi NNE 6.9 mph - N/A   Overcast
2:53 AM 27.0 °F - 17.1 °F 66% 30.18 in 10.0 mi Calm Calm - N/A   Overcast
3:53 AM 26.1 °F 21.9 °F 19.0 °F 75% 30.18 in 10.0 mi NW 3.5 mph - N/A   Overcast
4:53 AM 26.1 °F 21.9 °F 18.0 °F 71% 30.19 in 10.0 mi West 3.5 mph - N/A   Overcast
5:53 AM 25.0 °F 19.3 °F 19.9 °F 81% 30.20 in 10.0 mi WNW 4.6 mph - N/A   Overcast
6:53 AM 25.0 °F - 18.0 °F 75% 30.22 in 10.0 mi Calm Calm - N/A   Overcast
7:53 AM 25.0 °F 20.7 °F 18.0 °F 75% 30.25 in 10.0 mi WSW 3.5 mph - N/A   Mostly Cloudy
8:53 AM 26.1 °F - 18.0 °F 71% 30.27 in 10.0 mi Calm Calm - N/A   Scattered Clouds
9:53 AM 30.0 °F - 15.1 °F 54% 30.28 in 10.0 mi Calm Calm - N/A   Mostly Cloudy
10:53 AM 32.0 °F - 15.1 °F 50% 30.29 in 10.0 mi Calm Calm - N/A   Clear
11:53 AM 34.0 °F 29.8 °F 18.0 °F 52% 30.30 in 10.0 mi Variable 4.6 mph - N/A   Overcast
12:53 PM 36.0 °F 30.3 °F 17.1 °F 46% 30.29 in 10.0 mi North 6.9 mph - N/A   Mostly Cloudy
1:53 PM 37.9 °F 34.4 °F 17.1 °F 43% 30.27 in 10.0 mi East 4.6 mph - N/A   Scattered Clouds
2:53 PM 37.9 °F 32.7 °F 18.0 °F 45% 30.28 in 10.0 mi Variable 6.9 mph - N/A   Scattered Clouds
3:53 PM 39.9 °F 36.7 °F 15.1 °F 36% 30.27 in 10.0 mi Variable 4.6 mph - N/A   Mostly Cloudy
4:53 PM 39.9 °F 37.8 °F 15.1 °F 36% 30.27 in 10.0 mi Variable 3.5 mph - N/A   Partly Cloudy
5:53 PM 41.0 °F 38.0 °F 15.1 °F 35% 30.28 in 10.0 mi NW 4.6 mph - N/A   Partly Cloudy
6:53 PM 39.9 °F 33.4 °F 18.0 °F 41% 30.28 in 10.0 mi ESE 10.4 mph - N/A   Clear
7:53 PM 37.0 °F 31.0 °F 19.9 °F 50% 30.30 in 10.0 mi ESE 8.1 mph - N/A   Clear
8:53 PM 34.0 °F 26.6 °F 21.0 °F 59% 30.32 in 10.0 mi ESE 9.2 mph - N/A   Clear
9:53 PM 32.0 °F 25.6 °F 21.9 °F 66% 30.34 in 10.0 mi East 6.9 mph - N/A   Clear
10:53 PM 30.9 °F 22.8 °F 21.9 °F 69% 30.34 in 10.0 mi East 9.2 mph - N/A   Clear
11:53 PM 30.9 °F 22.8 °F 21.9 °F 69% 30.33 in 10.0 mi East 9.2 mph - N/A   Clear